Flag for USA

Past Weather in Madison, Wisconsin, USA — Yesterday and Last 2 Weeks

Now
76 °F

Passing clouds.


Feels Like: 78 °F
Forecast: 81 / 63 °F
Wind: 5 mph from Northeast

Location: Dane County Regional-Truax Field

Current Time: Jul 12, 2020 at 9:10:27 pm

Latest Report: Jul 12, 2020 at 7:53 pm


Visibility: 10 mi

Pressure: 29.91 "Hg

Humidity: 56%

Dew Point: 59 °F

Location of MadisonLocation

Past Weather in Madison — Graph

°F

Madison Temperature Yesterday

Maximum temperature yesterday: 83 °F (at 3:53 pm)
Minimum temperature yesterday: 64 °F (at 3:53 am)
Average temperature yesterday: 74 °F

High & Low Weather Summary for the Past Weeks

 TemperatureHumidityPressure
High90 °F (Jul 3, 2:53 pm)100% (Jun 28, 3:53 am)30.07 "Hg (Jun 28, 3:53 am)
Low63 °F (Jul 2, 2:53 am)43% (Jul 2, 2:53 pm)29.74 "Hg (Jul 9, 4:53 pm)
Average76 °F75%29.91 "Hg
* Reported Jun 27 6:53 pm — Jul 12 6:53 pm, Madison. Weather by CustomWeather, © 2020

Note: Actual official high and low records may vary slightly from our data, if they occured in-between our weather recording intervals... More about our weather records

Madison Weather History for the Previous 24 Hours

Scroll right to see more
 ConditionsComfort  
Time TempWeatherWind HumidityBarometerVisibility
6:53 pm
Sun, Jul 12
76 °FPassing clouds.9 mph56%29.91 "Hg10 mi
5:53 pm79 °FScattered clouds.9 mph50%29.90 "Hg10 mi
4:53 pm80 °FBroken clouds.8 mph49%29.89 "Hg10 mi
3:53 pm79 °FBroken clouds.13 mph52%29.89 "Hg10 mi
2:53 pm80 °FScattered clouds.13 mph49%29.89 "Hg10 mi
1:53 pm79 °FScattered clouds.10 mph54%29.90 "Hg10 mi
12:53 pm77 °FPartly sunny.9 mph58%29.90 "Hg10 mi
11:53 am76 °FPartly sunny.9 mph60%29.91 "Hg10 mi
11:36 am76 °FPartly sunny.8 mph60%29.93 "Hg10 mi
10:53 am74 °FPartly sunny.7 mph69%29.91 "Hg10 mi
9:53 am72 °FPartly sunny.8 mph71%29.91 "Hg10 mi
8:53 am71 °FPassing clouds.8 mph68%29.92 "Hg10 mi
7:53 am70 °FPassing clouds.10 mph73%29.91 "Hg10 mi
6:53 am67 °FPassing clouds.7 mph87%29.90 "Hg10 mi
5:53 am66 °FPassing clouds.6 mph90%29.87 "Hg10 mi
4:53 am66 °FClear.9 mph93%29.85 "Hg10 mi
3:53 am66 °FPassing clouds.8 mph90%29.83 "Hg10 mi
2:53 am68 °FClear.6 mph84%29.82 "Hg10 mi
1:53 am70 °FClear.8 mph79%29.80 "Hg10 mi
12:53 am71 °FPassing clouds.5 mph81%29.79 "Hg10 mi
11:53 pm
Sat, Jul 11
73 °FClear.6 mph79%29.79 "Hg10 mi
10:53 pm73 °FPassing clouds.3 mph88%29.79 "Hg10 mi
9:53 pm73 °FMostly cloudy.No wind84%29.80 "Hg10 mi
Weather by CustomWeather, © 2020

See weather overview